Location: Medlow Airstrip Trail, Medlow Bath NSW 2780, Australia
(33.6682°S, 150.3233°E)
Time: 00:49:16
(UTC+11:00)

Envisat - Visible Passes

Search period start: 18 January 2021 00:00
Search period end: 28 January 2021 00:00
Orbit: 764 x 766 km, 98.1° (Epoch: 17 January)

Date Brightness Start Highest point End Pass type
(mag) Time Alt. Az. Time Alt. Az. Time Alt. Az.
18 Jan 5.1 05:18:04 10° NE 05:22:34 32° ESE 05:27:07 10° S visible
19 Jan 6.1 04:43:28 10° E 04:46:08 14° ESE 04:48:49 10° SSE visible
21 Jan 5.5 05:07:07 10° ENE 05:11:15 26° ESE 05:15:25 10° SSE visible
22 Jan 6.4 04:33:33 10° ESE 04:34:53 11° ESE 04:36:14 10° SE visible
23 Jan 4.3 05:31:38 10° NE 05:36:28 46° ESE 05:41:22 10° S visible
24 Jan 5.9 04:56:18 10° ENE 04:59:57 20° ESE 05:03:38 10° SSE visible
26 Jan 4.8 05:20:32 10° NE 05:25:08 35° ESE 05:29:47 10° S visible
27 Jan 6.1 04:45:42 10° ENE 04:48:40 16° ESE 04:51:40 10° SSE visible
